Zurück zum Katalog

SL-8 R/B

AktivPO
NORAD 22308·ROCKET BODY·🇷🇺 Russia

Gestartet Jan 12, 1993 von Plesetsk Cosmodrome

Loading…

Nächste Überflüge (nächste 24 Stunden)

TLE

AktuellSource: Space-Track

Epoche: Sep 14, 2026, 05:56 UTC

1 22308U 93001B   26257.24769660  .00000087  00000-0  73791-4 0  9996
2 22308  82.9391 181.3562 0024338 131.3035  31.3060 13.75987133690242

Verfolge SL-8 R/B in Echtzeit mit AllMySat

Download on the App Store